Weather History for Pardubice, Czech Republic

Change the Weather History Date:

Thursday, October 4, 2012

  Actual Average Record
Temperature  
Mean Temperature 56 °F -  
Max Temperature 66 °F - - ()
Min Temperature 46 °F - - ()
Degree Days  
Heating Degree Days 9    
Growing Degree Days 6 (Base 50)    
Moisture  
Dew Point 50 °F    
Average Humidity 78    
Maximum Humidity 100    
Minimum Humidity 56    
Precipitation  
Precipitation 0.00 in - - ()
Sea Level Pressure  
Sea Level Pressure 29.93 in    
Wind  
Wind Speed 5 mph ()    
Max Wind Speed 20 mph    
Max Gust Speed 34 mph    
Visibility 6.2 miles    
Events Rain    
T = Trace of Precipitation, MM = Missing Value Source: Averaged Metar Reports

Daily Weather History Graph

Daily Weather History Graph

Search for Another Location

Airport:

Trip Planner

Search our weather history database for the weather conditions in past years. The results will help you decide how hot, cold, wet, or windy it might be!

Date:

Astronomy

Oct. 04, 2012 Rise Set
Actual Time 7:02 AM CEST 6:28 PM CEST
Civil Twilight 6:29 AM CEST 7:00 PM CEST
Nautical Twilight 5:52 AM CEST 7:37 PM CEST
Astronomical Twilight 5:14 AM CEST 8:15 PM CEST
Moon 8:24 PM CEST (10/4) 11:30 AM CEST (10/4)
Length of Visible Light 12h 30m
Length of Day
11h 26m
Waning Gibbous, 84% of the Moon is Illuminated
Oct 4
Waning Gibbous
Oct 8
Last Quarter
Oct 15
New
Oct 22
First Quarter
Oct 29
Full

Hourly Weather History & Observations

Time (CEST) Temp. Dew Point Humidity Pressure Visibility Wind Dir Wind Speed Gust Speed Precip Events Conditions
12:00 AM 51.8 °F 48.2 °F 88% 30.01 in - ESE 3.5 mph - N/A   Clear
1:00 AM 51.8 °F 48.2 °F 88% 30.01 in - Calm Calm - N/A   Clear
2:00 AM 51.8 °F 48.2 °F 88% 30.01 in - Variable 2.3 mph - N/A   Clear
3:00 AM 48.2 °F 46.4 °F 93% 29.98 in - East 2.3 mph - N/A   Clear
4:00 AM 50.0 °F 46.4 °F 87% 29.98 in - East 3.5 mph - N/A   Clear
5:00 AM 51.8 °F 48.2 °F 88% 29.98 in - East 3.5 mph - N/A   Clear
6:00 AM 48.2 °F 46.4 °F 93% 29.95 in - Calm Calm - N/A   Clear
7:00 AM 48.2 °F 46.4 °F 93% 29.95 in - Calm Calm - N/A   Clear
8:00 AM 46.4 °F 46.4 °F 100% 29.95 in - East 2.3 mph - N/A   Clear
9:00 AM 57.2 °F 51.8 °F 82% 29.95 in - Variable 2.3 mph - N/A   Clear
11:00 AM 64.4 °F 51.8 °F 64% 29.95 in - Variable 2.3 mph - N/A   Clear
12:00 PM 66.2 °F 51.8 °F 60% 29.92 in - SSW 9.2 mph - N/A   Clear
1:00 PM 66.2 °F 53.6 °F 64% 29.89 in - South 6.9 mph - N/A   Clear
2:00 PM 66.2 °F 50.0 °F 56% 29.86 in - SSW 9.2 mph - N/A   Clear
3:00 PM 66.2 °F 50.0 °F 56% 29.83 in - South 8.1 mph - N/A   Clear
4:00 PM 66.2 °F 50.0 °F 56% 29.83 in - SSW 9.2 mph - N/A   Clear
5:00 PM 64.4 °F 50.0 °F 59% 29.80 in 6.2 mi South 10.4 mph - N/A   Overcast
6:00 PM 62.6 °F 53.6 °F 72% 29.80 in 6.2 mi South 6.9 mph - N/A Rain Light Rain
7:00 PM 62.6 °F 51.8 °F 68% 29.83 in 6.2 mi SW 17.3 mph - N/A Rain Light Rain Showers
8:00 PM 57.2 °F 53.6 °F 88% 29.89 in 6.2 mi WSW 19.6 mph 34.5 mph N/A Rain Light Rain
9:00 PM 55.4 °F 51.8 °F 88% 29.95 in 6.2 mi West 16.1 mph - N/A Rain Light Rain
10:00 PM 51.8 °F 48.2 °F 88% 29.98 in 6.2 mi West 8.1 mph - N/A   Scattered Clouds
11:00 PM 53.6 °F 46.4 °F 77% 30.01 in 6.2 mi West 13.8 mph - N/A   Mostly Cloudy